Regional Weather Roundup
Issued by NWS Northern Indiana

Home | Current Version | Previous Version | Graphics & Text | Print | Product List | Glossary On
Versions: 1 2 3 4 5 6 7 8 9 10 11 12 13 14 15 16 17 18 19 20 21 22 23 24 25 26 27 28 29 30 31 32 33 34 35 36 37 38 39 40 41 42 43 44 45 46 47 48 49 50
000
ASUS43 KIWX 251200
RWRIWX

KIWX WEATHER ROUNDUP
NATIONAL WEATHER SERVICE NORTHERN INDIANA
800 AM EDT SAT OCT 25 2014

NOTE: "FAIR" INDICATES FEW OR NO CLOUDS BELOW 12,000 FEET WITH NO
SIGNIFICANT WEATHER AND/OR OBSTRUCTIONS TO VISIBILITY.

* THESE STATIONS ARE NOT UNDER NWS QUALITY CONTROL. THEY ALSO MAY NOT
  REPORT WEATHER SUCH AS PRECIPITATION OR FOG.

INZ001>027-251300-
NORTHERN INDIANA

CITY           SKY/WX    TMP DP  RH WIND       PRES   REMARKS
GARY*          CLOUDY    57  55  94 W14       29.92S FOG
VALPARAISO     PTCLDY    52  50  93 SW7       29.92S FOG
SOUTH BEND     PTCLDY    51  49  92 SW5       29.91F FOG
6HR MIN TEMP:  51; 6HR MAX TEMP:  56;

ELKHART*       PTCLDY    52  50  93 W3        29.90  FOG
GOSHEN         CLOUDY    54  51  90 SW8       29.90F
6HR MIN TEMP:  51; 6HR MAX TEMP:  55;

ANGOLA*        CLOUDY    55  48  76 W5        29.90S
FORT WAYNE     CLOUDY    54  50  86 SW8       29.93F
6HR MIN TEMP:  48; 6HR MAX TEMP:  54; 6HR PCP: TRACE;

PERU/GRISSOM   PTCLDY    51  51 100 SW9       29.93F
6HR MIN TEMP:  49; 6HR MAX TEMP:  55;


$$
INZ028>050-251300-
CENTRAL INDIANA

CITY           SKY/WX    TMP DP  RH WIND       PRES   REMARKS
LAFAYETTE      CLEAR     50  50 100 SW3       29.95S
6HR MIN TEMP:  50; 6HR MAX TEMP:  56; 6HR PCP: TRACE;

KOKOMO*        CLOUDY    55  48  76 SW9       29.95S
6HR MIN TEMP:  50; 6HR MAX TEMP:  55;

MUNCIE*        CLOUDY    57  51  80 SW9       29.95R
6HR MIN TEMP:  53; 6HR MAX TEMP:  57;

INDIANAPOLIS   MOCLDY    53  50  89 SW8       29.97R
6HR MIN TEMP:  50; 6HR MAX TEMP:  54;


$$
MIZ043>046-050>051-056>058-064>065-071>073-077>080-251300-
SOUTHWEST LOWER MICHIGAN

CITY           SKY/WX    TMP DP  RH WIND       PRES   REMARKS
BATTLE CREEK   CLOUDY    54  49  83 SW8       29.86F
6HR MIN TEMP:  45; 6HR MAX TEMP:  55;

BENTON HARBOR  CLOUDY    56  54  93 W14       29.89S FOG
6HR MIN TEMP:  53; 6HR MAX TEMP:  58;

COLDWATER*     CLOUDY    55  53  92 SW7       29.88F
6HR MIN TEMP:  50; 6HR MAX TEMP:  55;

HILLSDALE*     MOCLDY    55  53  93 W7        29.88F
6HR MIN TEMP:  46; 6HR MAX TEMP:  55;

HOLLAND        MOCLDY    57  54  89 W13       29.86S
6HR MIN TEMP:  53; 6HR MAX TEMP:  60;

GRAND RAPIDS   CLOUDY    55  52  89 W13       29.84S
6HR MIN TEMP:  46; 6HR MAX TEMP:  56;

KALAMAZOO      MOCLDY    57  52  83 SW8       29.87F
6HR MIN TEMP:  49; 6HR MAX TEMP:  57;

STURGIS*       CLOUDY    54  52  94 SW8       29.88F FOG
THREE RIVERS*  CLOUDY    54  51  90 SW5       29.89S FOG
6HR MIN TEMP:  48; 6HR MAX TEMP:  55;


$$
OHZ001>008-015>018-024>025-251300-
NORTHWEST OHIO

CITY           SKY/WX    TMP DP  RH WIND       PRES   REMARKS
DEFIANCE       CLOUDY    56  51  84 SW7       29.91S
6HR MIN TEMP:  48; 6HR MAX TEMP:  56;

FINDLAY        CLOUDY    55  50  83 SW10      29.90F
6HR MIN TEMP:  47; 6HR MAX TEMP:  55;

TOLEDO EXPRESS CLOUDY    52  49  89 SW8       29.88F
6HR MIN TEMP:  47; 6HR MAX TEMP:  52;

TOLEDO METCALF CLOUDY    52  48  86 SW8       29.89F
6HR MIN TEMP:  47; 6HR MAX TEMP:  52;

LIMA           CLOUDY    54  49  83 SW10      29.93S
6HR MIN TEMP:  51; 6HR MAX TEMP:  54;


$$
AND FOR LAKE MICHIGAN COASTAL AND OPEN LAKE BUOY OBSERVATIONS

STATION/POSITION TEMP    WIND        PRES    VSBY  WAVE
                 AIR SEA DIR/SP/G                  HT/PER
                 (F)     (DEG/KT/KT) (MB)    (MI)  (FT/S)
CALUMET HARBOR    56     250/  5/ 12 1011.5F
MICHIGAN CITY     56     210/ 11/ 12   N/A
SAINT JOSEPH      57                 1012.2F
SOUTH LAKE BUOY   55 54  270/ 17/ 21 1011.4R         1/ 3

$$
&&



USA.gov is the U.S. government's official web portal to all federal, state and local government web resources and services.